Home   Weather   Lafayette   Past weeks

Flag for USA Past Weather in Lafayette, Indiana, USA — Yesterday and Last 2 Weeks

Now
82 °F

Sunny.


Feels Like: 87 °F
Forecast: 75 / 87 °F
Wind: 7 mph from Northwest

Location: Purdue University Airport

Current Time: Jul 22, 2017 at 2:48:57 pm

Latest Report: Jul 22, 2017 at 1:54 pm


Visibility: 10 mi

Pressure: 29.80 "Hg

Humidity: 74%

Dew Point: 73 °F

Location of LafayetteLocation

Past Weather in Lafayette — Graph

°F

Lafayette Temperature Yesterday

Maximum temperature yesterday: 86 °F (at 4:54 pm)
Minimum temperature yesterday: 70 °F (at 5:08 am)
Average temperature yesterday: 77 °F

High & Low Weather Summary for the Past Weeks

 TemperatureHumidityPressure
High88 °F (Jul 12, 2:54 pm)100% (Jul 7, 10:54 pm)30.17 "Hg (Jul 7, 10:54 pm)
Low55 °F (Jul 9, 5:54 am)46% (Jul 9, 12:54 pm)29.78 "Hg (Jul 22, 10:54 am)
Average73 °F85%29.98 "Hg
* Reported Jul 7 12:54 pm — Jul 22 12:54 pm, Lafayette. Weather by CustomWeather, © 2017

Note: Actual official high and low records may vary slightly from our data, if they occured in-between our weather recording intervals... More about our weather records

Advertising

Lafayette Weather History for the Previous 24 Hours

Scroll right to see more
 ConditionsComfort  
Time TempWeatherWind HumidityBarometerVisibility
12:54 pm
Sat, Jul 22
78 °FSunny.3 mph82%29.79 "Hg10 mi
11:54 am74 °FSunny.10 mph91%29.79 "Hg10 mi
10:54 am72 °FLight rain. Passing clouds.13 mph97%29.78 "Hg10 mi
9:54 am74 °FPassing clouds.7 mph94%29.90 "Hg10 mi
9:32 am73 °FBroken clouds.6 mph97%29.90 "Hg10 mi
8:54 am73 °FPartly sunny.5 mph97%29.87 "Hg10 mi
8:40 am73 °FScattered clouds.5 mph97%29.88 "Hg10 mi
8:24 am73 °FPartly sunny.7 mph97%29.88 "Hg10 mi
7:54 am72 °FPartly sunny.8 mph100%29.84 "Hg10 mi
6:54 am72 °FScattered clouds.5 mph100%29.82 "Hg10 mi
5:54 am72 °FPartly cloudy.5 mph97%29.83 "Hg10 mi
4:54 am72 °FClear.8 mph97%29.83 "Hg10 mi
4:39 am72 °FPassing clouds.8 mph100%29.85 "Hg10 mi
4:19 am72 °FThundershowers. Low clouds.6 mph100%29.87 "Hg10 mi
3:54 am71 °FThunderstorms. Mostly cloudy.8 mph100%29.87 "Hg10 mi
3:21 am71 °FThunderstorms. Fog.No wind100%29.91 "Hg4 mi
2:54 am71 °FStrong thunderstorms. Fog.12 mph100%29.89 "Hg1 mi
2:38 am72 °FStrong thunderstorms. Fog.15 mph97%29.90 "Hg1 mi
2:11 am77 °FThunderstorms. Passing clouds.8 mph96%29.84 "Hg10 mi
1:54 am77 °FPassing clouds.7 mph94%29.82 "Hg10 mi
12:07 am73 °FClear.5 mph94%29.89 "Hg10 mi
11:33 pm
Fri, Jul 21
74 °FPassing clouds.6 mph88%29.90 "Hg10 mi
10:54 pm75 °FThunderstorms. Passing clouds.8 mph90%29.90 "Hg10 mi
10:37 pm80 °FThunderstorms. Passing clouds.13 mph74%29.92 "Hg10 mi
10:13 pm80 °FThundershowers. Clear.3 mph87%29.90 "Hg10 mi
9:54 pm80 °FPassing clouds.5 mph87%29.88 "Hg10 mi
8:54 pm81 °FScattered clouds.3 mph85%29.89 "Hg10 mi
7:54 pm83 °FSunny.5 mph79%29.88 "Hg10 mi
6:54 pm86 °FSunny.5 mph75%29.90 "Hg10 mi
5:54 pm86 °FSunny.8 mph72%29.93 "Hg10 mi
4:54 pm86 °FSunny.3 mph70%29.93 "Hg10 mi
3:54 pm85 °FSunny.6 mph68%29.96 "Hg10 mi
2:54 pm83 °FPassing clouds.No wind74%29.97 "Hg10 mi
Weather by CustomWeather, © 2017

See weather overviewHow to use our weather pages